Location: Hartford
(41.7640°N, 72.6860°W)
Time: 03:47:59
(UTC-05:00)

ISS - Visible Passes

Search period start: 10 February 2016 00:00
Search period end: 20 February 2016 00:00
Orbit: 398 x 408 km, 51.6° (Epoch: 09 February)

Date Brightness Start Highest point End Pass type
(mag) Time Alt. Az. Time Alt. Az. Time Alt. Az.
10 Feb -1.1 18:42:46 10° NW 18:44:38 14° N 18:45:10 14° NNE visible
11 Feb -1.0 17:49:44 10° NW 17:51:41 15° N 17:53:38 10° NNE visible
11 Feb -0.6 19:26:37 10° NNW 19:27:18 13° NNW 19:27:18 13° NNW visible
12 Feb -1.3 18:33:59 10° NNW 18:36:07 16° N 18:36:48 15° NNE visible
13 Feb -1.2 19:17:29 10° NW 19:18:57 20° NNW 19:18:57 20° NNW visible
14 Feb -1.6 18:24:53 10° NW 18:27:25 21° NNE 18:28:30 18° NE visible
14 Feb 0.1 20:00:57 10° NW 20:01:08 11° NW 20:01:08 11° NW visible
15 Feb -2.5 19:08:15 10° NW 19:10:44 41° NNW 19:10:44 41° NNW visible
16 Feb -2.3 18:15:35 10° NW 18:18:33 31° NNE 18:20:24 18° ENE visible
16 Feb -0.4 19:52:00 10° WNW 19:53:03 18° W 19:53:03 18° W visible
17 Feb -3.3 18:59:02 10° WNW 19:02:17 72° SW 19:02:49 56° SSE visible
18 Feb -3.3 18:06:13 10° NW 18:09:26 60° NNE 18:12:39 10° ESE visible
18 Feb -0.6 19:43:31 10° W 19:45:23 16° SW 19:45:23 16° SW visible
19 Feb -1.5 18:50:01 10° WNW 18:52:53 29° SW 18:55:27 12° SSE visible
